GSAT0211 (GALILEO 14)

Last updated on Tue Dec 16 2025 00:02:36 GMT+0000 (Coordinated Universal Time)

1 41549U 16030A 25348.02255207 .00000028 00000+0 00000+0 0 9996 2 41549 55.1518 226.7881 0004070 16.5595 343.5367 1.70473201 59512
UTC large
Height (km)
Speed (km/s)
/
Latitude / Longitude
Inclination (degrees)
Orbital Period (minutes)
Azimuth
Elevation
Range (km)
Doppler Factor

Next 0 passes for location: London (51.5072 / 0.1276)

Sorry there are no passes over London.